Location: Plum
(40.5000°N, 79.7500°W)
Time: 23:27:56
(UTC-04:00)

Daily predictions for brighter satellites

Satellite Brightness Start Highest point End
(mag) Time Altitude Azimuth Time Altitude Azimuth Time Altitude Azimuth
Meteor 1-4 Rocket 3.1 20:05:10 10° SSE 20:08:17 32° E 20:11:26 10° NNE
Helios 1B rocket 4.0 20:05:52 10° NE 20:08:24 16° E 20:10:55 10° SE
In-Cosmos 22 4.1 20:05:30 10° N 20:10:48 66° E 20:16:02 10° SSE
Cosmos 1378 4.4 20:09:08 10° NNW 20:12:45 46° W 20:16:20 10° SSW
Spot 2 Rocket 3.9 20:09:08 10° SE 20:13:58 45° ENE 20:18:50 10° N
Lacrosse 4 Rocket 4.2 20:11:28 10° W 20:14:19 18° NW 20:17:09 10° N
Lacrosse 5 rocket 2.6 20:11:57 10° NNW 20:15:17 25° NNE 20:18:25 10° E
Cosmos 1076 Rocket 3.8 20:16:08 10° N 20:20:11 42° ENE 20:24:13 10° SSE
Cosmos 2344 4.1 20:13:17 10° SW 20:20:55 70° NW 20:29:34 10° NNE
Cosmos 1544 3.0 20:17:26 10° S 20:21:02 64° E 20:24:41 10° NNE
Cosmos 1867 3.6 20:17:06 10° SSW 20:22:29 68° ESE 20:27:56 10° NE
H-2A R/B (2) 3.5 20:20:48 10° SW 20:22:52 16° S 20:26:07 10° SE
Cosmos 1934 Rocket 4.3 20:17:03 10° SSW 20:23:09 72° W 20:29:13 10° N
FENGYUN 3A 3.7 20:18:46 10° SSE 20:24:10 86° ENE 20:29:36 10° NNW
CZ-2D R/B 3.8 20:20:34 10° SE 20:24:10 39° ENE 20:27:49 10° N
Okean 3 Rocket 3.5 20:20:03 10° N 20:24:28 78° E 20:28:53 10° S
Cosmos 1805 3.1 20:23:33 10° S 20:27:26 79° E 20:31:21 10° N
Cosmos 1833 Rocket 2.9 20:23:25 10° NNW 20:28:54 51° ENE 20:34:21 10° SE
Helios 1A 3.8 20:26:29 10° SE 20:30:08 30° ENE 20:33:50 10° N
ALOS 2.5 20:25:29 10° S 20:30:09 77° WSW 20:34:51 10° NNW
Meteor 1-21 Rocket 4.4 20:26:17 10° N 20:32:04 59° ENE 20:37:53 10° SSE
Envisat 4.1 20:28:31 12° ESE 20:32:17 26° ENE 20:36:27 10° NNE
Abrixas 3.2 20:30:46 10° WNW 20:33:30 44° SW 20:35:43 14° SE
Cosmos 2278 Rocket 3.4 20:33:02 10° SW 20:38:28 46° WNW 20:43:57 10° NNE
ATLAS 5 CENTAUR R/B 1.7 20:36:16 10° SSW 20:40:52 63° ESE 20:45:50 10° NE
Cosmos 1125 Rocket 3.5 20:37:16 10° SSW 20:42:28 85° WNW 20:47:43 10° NNE
SeaSat 1 2.6 20:37:39 10° SSE 20:42:34 79° WSW 20:47:32 10° NNW
Cosmos 1733 3.6 20:40:19 10° SSE 20:43:56 40° E 20:47:35 10° NNE
ERS-1 Rocket 4.4 20:43:15 16° E 20:44:53 19° ENE 20:48:20 10° NNE
Geosat 4.2 20:40:36 10° NE 20:45:28 49° ESE 20:50:19 10° S
Cosmos 1470 3.0 20:41:45 10° SSE 20:45:32 45° E 20:49:20 10° NNE
Cosmos 1048 Rocket 3.9 20:40:34 10° NNW 20:45:42 81° ENE 20:50:50 10° SSE
GPS 2-05 Rocket1 3.7 20:43:23 10° WSW 20:46:40 36° S 20:48:14 23° SE
Cosmos 1766 Rocket 3.6 20:42:28 10° N 20:46:56 63° E 20:51:21 10° SSE
Cosmos-2242 3.1 20:44:05 10° S 20:48:12 53° E 20:52:21 10° NNE
GP-B 3.1 20:47:18 10° SSE 20:51:39 60° E 20:56:02 10° N
Cosmos 2016 Rocket 4.4 20:50:14 10° SSE 20:55:55 39° E 21:01:33 10° NNE
Cosmos 2297 4.0 20:50:57 10° SSW 20:56:39 72° WNW 21:02:24 10° NNE
USA 186 0.6 20:58:06 76° E 20:58:09 77° ENE 21:00:21 10° N
BREEZE-M DEB (TANK) 3.7 20:55:39 10° WSW 20:58:36 61° NNW 21:06:59 10° ENE
H-2A R/B 3.7 20:55:09 10° S 20:58:57 50° W 21:02:49 10° NNW
Cosmos 1340 Rocket 2.9 20:56:29 10° N 21:00:26 54° ENE 21:02:27 26° SE
Resurs 01 Rocket 2.3 20:56:46 10° S 21:01:05 55° W 21:05:27 10° NNW
CZ-4B DEB 3.0 21:01:09 41° E 21:01:32 43° ENE 21:04:30 10° N
Cosmos 2082 Rocket 2.5 21:03:30 10° NNW 21:09:10 68° WSW 21:14:42 10° SSE
ISS -3.4 21:07:58 10° WSW 21:11:10 60° NW 21:12:44 27° NE
Meteor 1-29 2.8 21:10:34 10° NNE 21:14:03 73° ESE 21:16:41 17° S
Cosmos 2100 Rocket 4.0 21:08:21 10° S 21:14:40 85° E 21:21:05 10° N
Cosmos 1743 Rocket 3.5 21:13:40 10° N 21:18:05 63° E 21:19:40 37° SSE
SAR-Lupe-4 4.0 21:16:30 20° S 21:18:49 61° WSW 21:22:23 10° NNW
Cosmos 1500 Rocket 3.8 21:14:54 10° N 21:19:04 45° E 21:19:25 44° E
Meteor 1-16 Rocket 4.4 21:15:11 10° S 21:20:51 55° E 21:26:38 10° NNE
CZ-3B DEB 4.2 21:14:34 10° W 21:22:29 29° NW 21:26:43 10° NNE
SL-14 R/B 3.7 21:19:30 10° N 21:22:48 43° ENE 21:22:48 43° ENE
YAOGAN 6 3.9 21:24:20 27° NE 21:24:20 27° NE 21:26:40 10° N
COSMOS 2487 4.2 21:20:47 10° NW 21:23:59 31° WSW 21:26:45 12° SSW
Cosmos 1271 Rocket 3.5 21:20:55 10° SSW 21:24:51 56° W 21:28:50 10° N
Cosmos 2058 4.2 21:22:49 10° NNE 21:25:21 26° NE 21:25:21 26° NE
Cosmos 2251 Rocket 3.6 21:22:03 10° NNW 21:27:19 57° ENE 21:28:42 44° ESE
Tsikada Rocket 4.3 21:21:52 10° N 21:27:46 43° ENE 21:29:09 38° ESE
Cosmos 1328 3.7 21:26:29 10° N 21:30:24 66° ENE 21:30:24 66° ENE
Cosmos 1674 4.3 21:29:15 10° NNW 21:32:42 34° W 21:36:09 10° SSW
USA 215 3.2 21:29:11 10° NE 21:35:36 57° SE 21:41:59 10° SSW
Lacrosse 5 4.4 21:33:18 10° WNW 21:36:46 18° NNW 21:40:14 10° NNE
Cosmos 1802 Rocket 4.0 21:32:21 10° S 21:38:29 80° W 21:44:42 10° N
SPOT 5 3.9 21:42:54 34° ENE 21:42:54 34° ENE 21:47:13 10° N
Cosmos 2151 3.3 21:38:33 10° N 21:42:00 50° NE 21:42:00 50° NE
Meteor 2-1 Rocket 4.4 21:43:32 49° E 21:43:32 49° E 21:48:44 10° NNE
Cosmos 1939 Rocket 3.0 21:42:56 59° SSW 21:43:35 73° W 21:47:44 10° NNW
Helios 1B rocket 3.8 21:40:01 10° N 21:43:52 40° WNW 21:47:43 10° SW
Cosmos 1842 Rocket 3.8 21:50:28 38° SSW 21:52:03 66° W 21:56:26 10° N
Lacrosse 5 rocket 2.3 21:50:59 10° WNW 21:54:09 38° WSW 21:54:09 38° WSW
Cosmos 1816 Rocket 4.4 21:50:49 10° N 21:56:58 61° E 21:57:23 60° E
Cosmos 494 Rocket 4.0 21:53:17 10° NNW 21:58:24 74° WSW 21:59:02 64° SSW
Cosmos 2369 Rocket 3.4 22:01:46 28° NE 22:01:46 28° NE 22:04:27 10° NNE
MetOp-B 4.3 22:02:48 59° NE 22:02:48 59° NE 22:07:37 10° N
Gblst 52 Del rocket 4.0 22:01:28 10° SW 22:07:25 89° SE 22:07:37 84° ENE
USA 267 4.2 22:06:11 30° NE 22:07:55 35° NNE 22:13:41 10° NW
Cosmos 2233 Rocket 4.1 22:10:13 58° NE 22:10:13 58° NE 22:15:30 10° NNE
Envisat 4.3 22:08:43 24° SSW 22:11:07 37° W 22:15:49 10° NNW
NOAA 11 4.3 22:19:30 71° N 22:19:30 71° N 22:24:23 10° NNW
ERS-1 Rocket 3.5 22:23:15 53° W 22:23:15 53° W 22:28:10 10° NNW
ATLAS 5 CENTAUR R/B 4.3 22:22:24 10° W 22:26:02 21° NW 22:29:56 10° N
H-2A R/B 3.4 22:31:00 32° NNE 22:31:00 32° NNE 22:34:00 10° N
CZ-3 Stage 3 3.9 22:19:53 10° W 22:37:38 37° SSW 22:38:06 36° SSW
CZ-4C R/B 4.4 22:48:37 15° NNE 22:48:37 15° NNE 22:49:39 10° NNE
ARGOS 4.2 22:55:16 41° NW 22:55:16 41° NW 22:58:53 10° NNW
USA 215 4.1 23:12:19 10° NE 23:18:30 46° NNW 23:24:39 10° WSW
Terra 4.5 23:31:04 16° NNW 23:31:04 16° NNW 23:31:59 10° NNW
Cosmos 2369 Rocket 4.3 23:43:23 21° NW 23:43:23 21° NW 23:47:36 10° N
USA 267 4.5 23:53:31 35° NW 23:53:31 35° NW 23:57:03 10° NW
